Rbgn^[z[y[W
メイン
   新天体発見情報
     Comet P/2018 L5 = 2024 H1 (Leonard)
投稿するにはまず登録を

スレッド表示 | 新しいものから 前のトピック | 次のトピック | 下へ
投稿者 スレッド
佐藤裕久
投稿日時: 2024-6-17 18:08
モデレータ
登録日: 2005-6-12
居住地: 日本
投稿: 2548
オンライン
Comet P/2018 L5 = 2024 H1 (Leonard)

Erwin Schwab (Egelsbach, ドイツ)は、4月18日、スペイン Calar Altoの0.8-m f/3 Schmidt望遠鏡で
得たCCD画像からP/2018 L5 (CBET 4528)を検出した。
また、4月21日、南アフリカ SutherlandのLas Cumbre天文台 (Sutherland-LCO B:K92)の1.0-m f/8 
反射望遠鏡で確認した。
4月18日の画像からは尾もコマも見えず、21日は、60-秒露出8枚のスタックでは、尾は見られないもの
の、半値全幅(FWHM)は、近傍の恒星の1".5のに対し頭部は2".3であった。

NK 4854 とICQ's Comet Handbook 2024の中野主一氏の予報に対し、Delta(T)は、-0.09 dayであった。
MPC 119996のG. V. Williamsの予報に対する修正値は、Delta(T) = -0.072 dayあった。
彗星年表2022-2024の佐藤裕久の参考軌道に対する修正値は、 Delta(T) = -0.17 dayであった。

検出位置は次のとおり、

     2024 UT             R.A. (2000) Decl.       Mag.   Observer
     Apr. 18.06708   15 03 32.70   -17 07 04.8   20.7   Schwab
          18.07627   15 03 32.31   -17 07 03.2   21.1     "
          18.08546   15 03 31.96   -17 07 01.2   21.1     "
          18.09465   15 03 31.64   -17 06 59.4   20.6     "
          21.11250   15 01 35.65   -16 56 58.8   21.2     "
          21.12090   15 01 35.29   -16 56 57.4   20.8     "
          21.12928   15 01 34.93   -16 56 55.6   21.3     "

MPCの連結軌道要素、位置推算表は次のとおり、

Orbital elements:
    P/2018 L5 (Leonard)                                                         
Epoch 2025 Mar. 26.0 TT = JDT 2460760.5                                         
T 2025 Apr. 3.84230 TT                                  Rudenko                 
q   2.3089320            (2000.0)            P               Q                  
n   0.14262232     Peri.   93.94574     +0.68115867     +0.73173327             
a   3.6280873      Node   219.02507     -0.68609322     +0.62639814             
e   0.3635953      Incl.    2.20949     -0.25553661     +0.26868531             
P   6.91                                                                        
From 232 observations 2018 June 8-2024 May 29, mean residual 0".7.              
                                                                                
    P/2018 L5 (Leonard)                                                         
Epoch 2018 May 2.0 TT = JDT 2458240.5                                           
T 2018 May 4.47981 TT                                   Rudenko                 
q   2.3033288            (2000.0)            P               Q                  
n   0.14286907     Peri.   93.63880     +0.67892369     +0.73380523             
a   3.6239086      Node   219.15735     -0.68800080     +0.62426965             
e   0.3644076      Incl.    2.20920     -0.25635429     +0.26798746             
P   6.90                                                                        
From 232 observations 2018 June 8-2024 May 29, mean residual 0".7.              
                                                                                
    P/2018 L5 (Leonard)                                                         
Epoch 2024 Mar. 31.0 TT = JDT 2460400.5                                         
T 2025 Apr. 3.84177 TT                                  Rudenko                 
q   2.3086650            (2000.0)            P               Q                  
n   0.14255905     Peri.   93.95408     +0.68130358     +0.73159829             
a   3.6291605      Node   219.02808     -0.68596920     +0.62653327             
e   0.3638570      Incl.    2.20949     -0.25548324     +0.26873779             
P   6.91                                                                        
From 232 observations 2018 June 8-2024 May 29, mean residual 0".7.              
                                                                                
Ephemeris:
Date    TT    R. A. (2000) Decl.     Delta      r    Elong.  Phase   m1
2024 05 01    14 54 32.8 -16 20 37   2.1173  3.1220   174.8     1.7  21.1
...
2024 05 16    14 43 00.2 -15 19 26   2.0736  3.0691   167.8     4.0  21.0
...
2024 05 24    14 37 15.3 -14 47 51   2.0758  3.0410   158.6     7.0  20.9
...
2024 05 30    14 33 25.9 -14 26 14   2.0882  3.0200   151.8     9.1  20.9
2024 05 31    14 32 50.8 -14 22 53   2.0911  3.0165   150.7     9.5  20.9
2024 06 01    14 32 16.7 -14 19 35   2.0943  3.0130   149.6     9.8  20.9
...
2024 06 07    14 29 14.0 -14 01 40   2.1179  2.9920   143.1    11.8  20.9
...
2024 06 15    14 26 17.1 -13 43 21   2.1609  2.9641   134.6    14.1  20.9
...
2024 06 30    14 24 33.8 -13 28 37   2.2694  2.9123   119.9    17.6  20.9

(MPEC 2024-K145、CBET 5400、oaa-comet 6693)

スレッド表示 | 新しいものから 前のトピック | 次のトピック | トップ

投稿するにはまず登録を
 
© 1999 Tsutomu Seki.